Torna al catalogo

THORAD AGENA D DEB

AttivoSSO
NORAD 14478·DEBRIS·🇺🇸 United States

Lanciato Apr 8, 1970 da Vandenberg Space Force Base

Loading…

Prossimi Passaggi (prossime 24 ore)

TLE

AggiornatoSource: Space-Track

Epoca: Sep 13, 2026, 21:26 UTC

1 14478U 70025NW  26256.89368543  .00006099  00000-0  19175-1 0  9993
2 14478 100.9035  63.0075 0495293 226.0040 129.9200 12.69138198620369

Traccia THORAD AGENA D DEB in tempo reale con AllMySat

Download on the App Store